Location: Amsterdam
(30.7274°N, 84.4357°W)
Time: 11:01:59
(UTC+00:00)

JUGNU - Visible Passes

Search period start: 15 March 2026 00:00
Search period end: 25 March 2026 00:00
Orbit: 833 x 860 km, 20.0° (Epoch: 14 March)

Date Brightness Start Highest point End Pass type
(mag) Time Alt. Az. Time Alt. Az. Time Alt. Az.
15 Mar ? 10:16:42 23° SSW 10:18:36 28° S 10:23:29 10° ESE visible
16 Mar ? 10:01:24 27° SSW 10:02:14 28° S 10:07:08 10° ESE visible
17 Mar ? 09:46:06 28° S 09:46:06 28° S 09:50:46 10° ESE visible
18 Mar ? 09:30:49 26° SSE 09:30:49 26° SSE 09:34:24 10° SE visible
18 Mar ? 11:13:32 10° WSW 11:17:52 21° SSW 11:22:11 10° SE visible
19 Mar ? 09:15:33 21° SE 09:15:33 21° SE 09:18:01 10° SE visible
19 Mar ? 10:57:19 10° WSW 11:01:29 20° SSW 11:05:40 10° SE visible
20 Mar ? 09:00:18 16° SE 09:00:18 16° SE 09:01:37 10° SE visible
20 Mar ? 10:42:05 13° SW 10:45:06 19° SSW 10:49:08 10° SSE visible
21 Mar ? 08:45:06 10° SE 08:45:06 10° SE 08:45:14 10° SE visible
21 Mar ? 10:26:52 16° SW 10:28:43 18° SSW 10:32:35 10° SSE visible
22 Mar ? 10:11:42 17° SSW 10:12:19 17° SSW 10:16:00 10° SSE visible
23 Mar ? 09:56:35 16° S 09:56:35 16° S 09:59:22 10° SSE visible
24 Mar ? 09:41:29 13° S 09:41:29 13° S 09:42:43 10° SSE visible
